Lid_Strength_Index
1 1 1 1 2 2 2 1 1 3 6 7 3 3 3 3 2 2 3 3 3 4 4 5 4 5 7 6
2 2 2 2 2 2 2 1 1 3 7 4 3 4 3 3 2 3 2 2 2 3 5 4 5 7 7 10
2 2 2 2 2 2 2 1 4 4 8 2 5 4 4 5 4 3 2 3 2 5 7 10 9 10 13 12
2 2 2 2 1 2 3 3 4 7 6 7 5 5 4 4 5 5 5 4 5 9 10 11 15 14 14 12
2 2 3 4 5 6 5 7 7 7 7 5 4 6 6 5 4 5 8 7 11 13 11 10 11 11 12 12
3 3 3 5 6 5 8 6 6 7 6 5 8 7 6 7 7 10 8 9 13 10 9 10 11 11 12 13
3 3 5 5 3 4 8 8 7 8 7 6 9 9 8 8 9 10 10 12 11 9 10 11 12 12 12 13
4 5 6 4 3 4 9 10 8 8 7 6 9 7 7 8 9 11 10 11 10 10 10 12 12 14 12 13
5 7 6 3 3 5 14 9 8 5 6 9 9 9 6 8 11 11 10 12 12 12 12 12 11 13 11 12
5 5 3 3 4 10 15 10 8 9 9 9 10 8 9 8 8 10 10 11 9 10 12 11 11 10 12 13
7 4 3 4 10 13 9 11 11 10 10 12 12 11 11 13 14 15 15 12 12 10 11 13 11 13 15 19
4 4 4 7 12 10 11 9 10 10 12 12 12 11 11 14 13 14 16 16 16 13 11 13 14 14 15 19
4 4 7 10 12 11 10 11 10 12 12 12 12 12 13 13 13 13 17 16 16 12 11 11 12 15 17 15
4 5 7 11 11 10 10 10 13 12 13 14 14 13 13 13 13 13 12 14 19 13 12 12 12 14 14 19
4 6 10 12 11 10 10 11 12 13 13 15 14 14 14 13 13 13 13 14 16 16 14 15 16 16 17 16
8 8 11 10 10 10 10 11 11 12 14 14 15 14 15 14 12 13 16 14 17 20 17 14 13 14 16 16
11 11 11 12 11 11 12 12 13 12 12 14 16 14 14 12 12 14 16 15 18 22 19 17 14 17 16 16